Time,TemperatureF,DewpointF,PressureIn,WindDirection,WindDirectionDegrees,WindSpeedMPH,WindSpeedGustMPH,Humidity,HourlyPrecipIn,Conditions,Clouds,dailyrainin,SoftwareType,DateUTC
2013-03-30 02:22:00,51.0,-99.9,-100.00,WSW,238,5.0,6.0,-999,-99.99,,,-99.99,,2013-03-30 07:22:00,
2013-03-30 02:32:00,51.0,-99.9,-100.00,WSW,238,5.0,6.0,-999,-99.99,,,-99.99,,2013-03-30 07:32:00,
2013-03-30 02:42:00,51.0,-99.9,-100.00,WSW,238,5.0,6.0,-999,-99.99,,,-99.99,,2013-03-30 07:42:00,
2013-03-30 03:22:00,49.0,-99.9,-100.00,West,261,2.0,5.0,-999,-99.99,,,-99.99,,2013-03-30 08:22:00,
2013-03-30 03:32:00,47.0,-99.9,-100.00,WSW,242,5.0,6.0,-999,-99.99,,,-99.99,,2013-03-30 08:32:00,
2013-03-30 03:42:00,47.0,-99.9,-100.00,WSW,242,5.0,6.0,-999,-99.99,,,-99.99,,2013-03-30 08:42:00,
2013-03-30 07:23:00,47.0,-99.9,-100.00,West,264,3.0,6.0,-999,-99.99,,,-99.99,,2013-03-30 12:23:00,
2013-03-30 07:33:00,47.0,-99.9,-100.00,West,264,3.0,6.0,-999,-99.99,,,-99.99,,2013-03-30 12:33:00,
2013-03-30 11:23:00,69.0,-99.9,-100.00,NW,318,3.0,5.0,-999,-99.99,,,-99.99,,2013-03-30 16:23:00,
2013-03-30 11:30:00,75.0,-99.9,-100.00,WNW,298,2.0,6.0,-999,-99.99,,,-99.99,,2013-03-30 16:30:00,
2013-03-30 11:33:00,69.0,-99.9,-100.00,NW,318,3.0,5.0,-999,-99.99,,,-99.99,,2013-03-30 16:33:00,
2013-03-30 12:03:00,74.0,-99.9,-100.00,NW,317,4.0,5.0,-999,-99.99,,,-99.99,,2013-03-30 17:03:00,
2013-03-30 12:13:00,74.0,-99.9,-100.00,NW,317,4.0,5.0,-999,-99.99,,,-99.99,,2013-03-30 17:13:00,
2013-03-30 12:23:00,75.0,-99.9,-100.00,WNW,298,2.0,6.0,-999,-99.99,,,-99.99,,2013-03-30 17:23:00,
2013-03-30 13:40:00,83.0,-99.9,-100.00,NNE,25,2.0,3.0,-999,-99.99,,,-99.99,,2013-03-30 18:40:00,
2013-03-30 14:22:00,83.0,-99.9,-100.00,NNE,25,2.0,3.0,-999,-99.99,,,-99.99,,2013-03-30 19:22:00,
2013-03-30 14:30:00,86.0,-99.9,-100.00,WSW,247,3.0,5.0,-999,-99.99,,,-99.99,,2013-03-30 19:30:00,
2013-03-30 14:32:00,83.0,-99.9,-100.00,NNE,25,2.0,3.0,-999,-99.99,,,-99.99,,2013-03-30 19:32:00,
2013-03-30 15:02:00,86.0,-99.9,-100.00,WSW,247,3.0,5.0,-999,-99.99,,,-99.99,,2013-03-30 20:02:00,
2013-03-30 15:12:00,86.0,-99.9,-100.00,WSW,247,3.0,5.0,-999,-99.99,,,-99.99,,2013-03-30 20:12:00,
2013-03-30 15:22:00,86.0,-99.9,-100.00,WSW,247,3.0,5.0,-999,-99.99,,,-99.99,,2013-03-30 20:22:00,
2013-03-30 18:33:00,87.0,-99.9,-100.00,NW,309,2.0,6.0,-999,-99.99,,,-99.99,,2013-03-30 23:33:00,
2013-03-30 18:43:00,87.0,-99.9,-100.00,NW,309,2.0,6.0,-999,-99.99,,,-99.99,,2013-03-30 23:43:00,
2013-03-30 18:53:00,87.0,-99.9,-100.00,NW,309,2.0,6.0,-999,-99.99,,,-99.99,,2013-03-30 23:53:00,
2013-03-30 20:23:00,83.0,-99.9,-100.00,NNE,31,3.0,3.0,-999,-99.99,,,-99.99,,2013-03-31 01:23:00,
2013-03-30 20:32:00,83.0,-99.9,-100.00,NNE,31,3.0,3.0,-999,-99.99,,,-99.99,,2013-03-31 01:32:00,
2013-03-30 20:43:00,83.0,-99.9,-100.00,NNE,31,3.0,3.0,-999,-99.99,,,-99.99,,2013-03-31 01:43:00,
2013-03-30 21:02:00,80.0,-99.9,-100.00,NNE,29,1.0,3.0,-999,-99.99,,,-99.99,,2013-03-31 02:02:00,
2013-03-30 21:13:00,80.0,-99.9,-100.00,NNE,29,1.0,3.0,-999,-99.99,,,-99.99,,2013-03-31 02:13:00,
2013-03-30 21:20:00,78.0,-99.9,-100.00,SSW,213,2.0,2.0,-999,-99.99,,,-99.99,,2013-03-31 02:20:00,
2013-03-30 21:33:00,78.0,-99.9,-100.00,NNE,23,0.0,5.0,-999,-99.99,,,-99.99,,2013-03-31 02:33:00,
2013-03-30 21:43:00,78.0,-99.9,-100.00,NNE,23,0.0,5.0,-999,-99.99,,,-99.99,,2013-03-31 02:43:00,
2013-03-30 21:53:00,78.0,-99.9,-100.00,NNE,23,0.0,5.0,-999,-99.99,,,-99.99,,2013-03-31 02:53:00,
2013-03-30 22:02:00,78.0,-99.9,-100.00,SSW,213,2.0,2.0,-999,-99.99,,,-99.99,,2013-03-31 03:02:00,
2013-03-30 22:13:00,78.0,-99.9,-100.00,SSW,213,2.0,2.0,-999,-99.99,,,-99.99,,2013-03-31 03:13:00,
2013-03-30 22:30:00,78.0,-99.9,-100.00,WSW,253,3.0,6.0,-999,-99.99,,,-99.99,,2013-03-31 03:30:00,
2013-03-30 23:23:00,78.0,-99.9,-100.00,WSW,253,3.0,6.0,-999,-99.99,,,-99.99,,2013-03-31 04:23:00,
2013-03-30 23:50:00,75.0,-99.9,-100.00,WSW,257,2.0,4.0,-999,-99.99,,,-99.99,,2013-03-31 04:50:00,